Grand Rapids, MN

4:31 AM CDT on May 25, 2018 (GMT -0500)
Grand Rapids-Itasca County-Newstrom Field

Weather History for KGPZ - March, 2013

Change the Weather History Date:

Monday, March 11, 2013

  Actual Average Record
Temperature  
Mean Temperature 19 °F -  
Max Temperature 24 °F 37 °F 57 °F (2012)
Min Temperature 14 °F 10 °F -34 °F (1948)
Degree Days  
Heating Degree Days 46    
Moisture  
Dew Point 15 °F    
Average Humidity 79    
Maximum Humidity 93    
Minimum Humidity 69    
Precipitation  
Precipitation 0.00 in - - ()
Sea Level Pressure  
Sea Level Pressure 29.83 in    
Wind  
Wind Speed 7 mph (NNW)    
Max Wind Speed 12 mph    
Max Gust Speed -    
Visibility 10 miles    
Events      
Averages and records for this station are not official NWS values.
T = Trace of Precipitation, MM = Missing Value Source: NWS Daily Summary

Daily Weather History Graph

Daily Weather History Graph

Search for Another Location

Airport or City:

Astronomy

Mar. 11, 2013 Rise Set
Actual Time 7:34 AM CDT 7:14 PM CDT
Civil Twilight 7:03 AM CDT 7:44 PM CDT
Nautical Twilight 6:28 AM CDT 8:20 PM CDT
Astronomical Twilight 5:52 AM CDT 8:56 PM CDT
Moon 7:06 AM CDT (3/11) 7:31 PM CDT (3/11)
Length of Visible Light 12h 40m
Length of Day
11h 40m
Waning Crescent, 0% of the Moon is Illuminated
Mar 11
Waning Crescent
Mar 11
New
Mar 19
First Quarter
Mar 27
Full
Apr 2
Last Quarter

Hourly Weather History & Observations

Time (CDT) Temp. Windchill Dew Point Humidity Pressure Visibility Wind Dir Wind Speed Gust Speed Precip Events Conditions
12:15 AM 14.0 °F 5.1 °F 8.6 °F 79% 29.98 in 10.0 mi North 5.8 mph - N/A   Partly Cloudy
12:35 AM 15.8 °F 6.1 °F 12.2 °F 86% 29.98 in 10.0 mi North 6.9 mph - N/A   Mostly Cloudy
12:55 AM 17.6 °F 10.7 °F 15.8 °F 93% 29.97 in 10.0 mi North 4.6 mph - N/A   Overcast
1:15 AM 17.6 °F 12.3 °F 14.0 °F 86% 29.97 in 10.0 mi NNE 3.5 mph - N/A   Overcast
1:35 AM 17.6 °F 10.7 °F 14.0 °F 86% 29.97 in 10.0 mi North 4.6 mph - N/A   Overcast
1:55 AM 17.6 °F 7.3 °F 14.0 °F 86% 29.96 in 10.0 mi North 8.1 mph - N/A   Overcast
2:15 AM 17.6 °F 6.4 °F 14.0 °F 86% 29.96 in 10.0 mi North 9.2 mph - N/A   Overcast
2:35 AM 17.6 °F 5.0 °F 14.0 °F 86% 29.95 in 8.0 mi NNW 11.5 mph - N/A   Overcast
2:55 AM 17.6 °F 6.4 °F 14.0 °F 86% 29.94 in 10.0 mi North 9.2 mph - N/A   Overcast
3:15 AM 17.6 °F 6.4 °F 14.0 °F 86% 29.93 in 10.0 mi North 9.2 mph - N/A   Overcast
3:35 AM 17.6 °F 9.3 °F 14.0 °F 86% 29.92 in 10.0 mi North 5.8 mph - N/A   Overcast
3:55 AM 17.6 °F 9.3 °F 14.0 °F 86% 29.91 in 10.0 mi North 5.8 mph - N/A   Overcast
4:15 AM 17.6 °F 10.7 °F 14.0 °F 86% 29.90 in 10.0 mi North 4.6 mph - N/A   Overcast
4:35 AM 17.6 °F 12.3 °F 14.0 °F 86% 29.89 in 10.0 mi NNE 3.5 mph - N/A   Overcast
4:55 AM 17.6 °F 10.7 °F 12.2 °F 79% 29.88 in 10.0 mi North 4.6 mph - N/A   Overcast
5:15 AM 17.6 °F 9.3 °F 12.2 °F 79% 29.88 in 10.0 mi North 5.8 mph - N/A   Overcast
5:35 AM 17.6 °F 9.3 °F 12.2 °F 79% 29.86 in 10.0 mi North 5.8 mph - N/A   Overcast
5:55 AM 17.6 °F 8.2 °F 12.2 °F 79% 29.86 in 10.0 mi NNW 6.9 mph - N/A   Overcast
6:15 AM 17.6 °F 8.2 °F 12.2 °F 79% 29.86 in 10.0 mi NNW 6.9 mph - N/A   Overcast
6:35 AM 17.6 °F 8.2 °F 12.2 °F 79% 29.86 in 10.0 mi North 6.9 mph - N/A   Overcast
6:55 AM 17.6 °F 8.2 °F 12.2 °F 79% 29.86 in 10.0 mi NNW 6.9 mph - N/A   Overcast
7:15 AM 17.6 °F 6.4 °F 12.2 °F 79% 29.86 in 10.0 mi NNW 9.2 mph - N/A   Overcast
7:35 AM 17.6 °F 7.3 °F 12.2 °F 79% 29.86 in 10.0 mi NNW 8.1 mph - N/A   Overcast
7:55 AM 17.6 °F 6.4 °F 12.2 °F 79% 29.86 in 10.0 mi NNW 9.2 mph - N/A   Overcast
8:15 AM 17.6 °F 5.7 °F 12.2 °F 79% 29.86 in 10.0 mi NNW 10.4 mph - N/A   Overcast
8:35 AM 17.6 °F 6.4 °F 12.2 °F 79% 29.86 in 10.0 mi NNW 9.2 mph - N/A   Overcast
8:55 AM 17.6 °F 9.3 °F 12.2 °F 79% 29.84 in 10.0 mi NE 5.8 mph - N/A   Overcast
9:15 AM 17.6 °F 10.7 °F 14.0 °F 86% 29.84 in 10.0 mi North 4.6 mph - N/A   Overcast
9:35 AM 17.6 °F 9.3 °F 12.2 °F 79% 29.83 in 10.0 mi North 5.8 mph - N/A   Overcast
9:55 AM 17.6 °F 8.2 °F 12.2 °F 79% 29.83 in 10.0 mi North 6.9 mph - N/A   Overcast
10:15 AM 19.4 °F 10.4 °F 12.2 °F 74% 29.83 in 10.0 mi NNW 6.9 mph - N/A   Overcast
10:35 AM 19.4 °F 10.4 °F 14.0 °F 80% 29.82 in 10.0 mi NNW 6.9 mph - N/A   Overcast
10:55 AM 19.4 °F 10.4 °F 14.0 °F 80% 29.82 in 10.0 mi North 6.9 mph - N/A   Overcast
11:15 AM 19.4 °F 12.8 °F 14.0 °F 80% 29.82 in 10.0 mi NNW 4.6 mph - N/A   Overcast
11:35 AM 21.2 °F 11.7 °F 15.8 °F 80% 29.82 in 10.0 mi NNW 8.1 mph - N/A   Overcast
11:55 AM 21.2 °F 11.7 °F 15.8 °F 80% 29.81 in 9.0 mi NNW 8.1 mph - N/A   Overcast
12:15 PM 21.2 °F 11.7 °F 15.8 °F 80% 29.81 in 5.0 mi North 8.1 mph - N/A   Mostly Cloudy
12:35 PM 21.2 °F 12.6 °F 15.8 °F 80% 29.80 in 10.0 mi NNW 6.9 mph - N/A   Mostly Cloudy
12:55 PM 23.0 °F 13.1 °F 15.8 °F 74% 29.80 in 10.0 mi NNW 9.2 mph - N/A   Scattered Clouds
1:15 PM 24.8 °F 16.9 °F 15.8 °F 69% 29.79 in 10.0 mi North 6.9 mph - N/A   Scattered Clouds
1:35 PM 24.8 °F 17.9 °F 17.6 °F 74% 29.78 in 10.0 mi NW 5.8 mph - N/A   Mostly Cloudy
1:55 PM 24.8 °F 16.1 °F 15.8 °F 69% 29.77 in 10.0 mi NNW 8.1 mph - N/A   Overcast
2:15 PM 24.8 °F 14.6 °F 17.6 °F 74% 29.76 in 10.0 mi NNW 10.4 mph - N/A   Overcast
2:35 PM 24.8 °F 14.0 °F 17.6 °F 74% 29.75 in 10.0 mi NNW 11.5 mph - N/A   Overcast
2:55 PM 24.8 °F 14.0 °F 17.6 °F 74% 29.74 in 10.0 mi NNW 11.5 mph - N/A   Overcast
3:15 PM 24.8 °F 14.0 °F 15.8 °F 69% 29.73 in 10.0 mi NNW 11.5 mph - N/A   Overcast
3:35 PM 24.8 °F 14.6 °F 17.6 °F 74% 29.73 in 8.0 mi NNW 10.4 mph - N/A   Overcast
4:35 PM 24.8 °F 14.0 °F 15.8 °F 69% 29.74 in 10.0 mi NNW 11.5 mph - N/A   Unknown
4:55 PM 24.8 °F 15.3 °F 15.8 °F 69% 29.74 in 10.0 mi NNW 9.2 mph - N/A   Overcast
5:15 PM 24.8 °F 14.6 °F 15.8 °F 69% 29.74 in 10.0 mi NNW 10.4 mph - N/A   Overcast
5:35 PM 24.8 °F 15.3 °F 15.8 °F 69% 29.74 in 10.0 mi NNW 9.2 mph - N/A   Overcast
5:55 PM 24.8 °F 14.6 °F 15.8 °F 69% 29.75 in 10.0 mi NNW 10.4 mph - N/A   Overcast
6:15 PM 24.8 °F 16.1 °F 15.8 °F 69% 29.75 in 10.0 mi North 8.1 mph - N/A   Overcast
6:35 PM 24.8 °F 15.3 °F 15.8 °F 69% 29.75 in 10.0 mi North 9.2 mph - N/A   Overcast
6:55 PM 24.8 °F 14.6 °F 15.8 °F 69% 29.75 in 10.0 mi North 10.4 mph - N/A   Overcast
7:15 PM 24.8 °F 15.3 °F 15.8 °F 69% 29.76 in 10.0 mi North 9.2 mph - N/A   Overcast
7:35 PM 24.8 °F 14.6 °F 15.8 °F 69% 29.76 in 10.0 mi NNW 10.4 mph - N/A   Overcast
7:55 PM 23.0 °F 12.4 °F 15.8 °F 74% 29.76 in 10.0 mi NNW 10.4 mph - N/A   Overcast
8:15 PM 23.0 °F 13.1 °F 15.8 °F 74% 29.76 in 10.0 mi NNW 9.2 mph - N/A   Overcast
8:35 PM 23.0 °F 13.9 °F 15.8 °F 74% 29.76 in 10.0 mi North 8.1 mph - N/A   Overcast
8:55 PM 21.2 °F 12.6 °F 17.6 °F 86% 29.76 in 10.0 mi North 6.9 mph - N/A   Overcast
9:15 PM 21.2 °F 13.6 °F 15.8 °F 80% 29.76 in 10.0 mi North 5.8 mph - N/A   Overcast
9:35 PM 21.2 °F 13.6 °F 15.8 °F 80% 29.76 in 10.0 mi North 5.8 mph - N/A   Overcast
9:55 PM 21.2 °F 12.6 °F 15.8 °F 80% 29.76 in 10.0 mi North 6.9 mph - N/A   Overcast
10:15 PM 21.2 °F 13.6 °F 15.8 °F 80% 29.77 in 10.0 mi North 5.8 mph - N/A   Overcast
10:35 PM 21.2 °F 12.6 °F 15.8 °F 80% 29.77 in 10.0 mi North 6.9 mph - N/A   Overcast
10:55 PM 21.2 °F 14.9 °F 15.8 °F 80% 29.77 in 10.0 mi North 4.6 mph - N/A   Overcast
11:15 PM 19.4 °F 12.8 °F 15.8 °F 86% 29.78 in 10.0 mi NNW 4.6 mph - N/A   Overcast
11:35 PM 19.4 °F 11.5 °F 15.8 °F 86% 29.78 in 10.0 mi NNW 5.8 mph - N/A   Overcast
11:55 PM 19.4 °F 11.5 °F 15.8 °F 86% 29.78 in 10.0 mi NW 5.8 mph - N/A   Overcast